Other Public Products
Issued by NWS Charleston, SC

Current Version | Previous Version | Graphics & Text | Print | Product List | Glossary On
Versions: 1 2 3 4 5 6 7 8 9 10 11 12 13 14 15 16 17 18 19 20 21 22 23 24 25 26 27 28 29 30 31 32 33 34 35 36 37 38 39 40 41 42 43 44 45 46 47 48 49 50
822
FPUS82 KCHS 170027
OPUCHS

TEST...KCHS/KSAV Gateway Observations...TEST
National Weather Service Charleston SC
700 PM EST TUE JAN 16 2018

NOTE: "fair" indicates few or no clouds below 12,000 feet with no
significant weather and/or obstructions to visibility.

SCZ050-WAZ558-NCZ071-TXZ119-213-PAZ071-DCZ001-FLZ074-172-MI076-
NYZ176-178-MAZ016-IL014-TNZ027-NJZ106-GAZ044-MD014-170100-

...Gateway Observations for Charleston International...

CITY           SKY/WX    TMP DP  RH WIND       PRES   REMARKS
Chas Airport   FAIR      45  34  65 S5        30.37R
6HR MIN TEMP:  45; 6HR MAX TEMP:  59;

Seattle        MOCLDY    53  39  59 S9        30.24R
6HR MIN TEMP:  50; 6HR MAX TEMP:  56;

Charlotte      CLOUDY    46  26  45 S12       30.30F
6HR MIN TEMP:  43; 6HR MAX TEMP:  49;

Dallas DFW     PTCLDY    27   1  32 N16       30.68R WCI  15
6HR MIN TEMP:  24; 6HR MAX TEMP:  32;

Dallas Love    PTCLDY    27   1  32 N15       30.71R WCI  15
6HR MIN TEMP:  21; 6HR MAX TEMP:  29;

Philladelphia  CLOUDY    38  29  70 E6        30.38F WCI  33
6HR MIN TEMP:  38; 6HR MAX TEMP:  45;

Wash National  CLOUDY    38  25  59 S3        30.37S
6HR MIN TEMP:  37; 6HR MAX TEMP:  43;

Baltimore      CLOUDY    32  29  88 W3        30.36S
6HR MIN TEMP:  32; 6HR MAX TEMP:  40;

Miami          MOCLDY    70  53  54 NE8       30.22R
6HR MIN TEMP:  63; 6HR MAX TEMP:  76;

Detroit        FLURRIES   8   3  80 SW10      30.45R WCI  -6
6HR MIN TEMP:   8; 6HR MAX TEMP:  13; 6HR PCP: TRACE;

Newark         CLOUDY    34  27  75 N7        30.41S WCI  28
6HR MIN TEMP:  34; 6HR MAX TEMP:  38;

Laguardia      CLOUDY    32  28  85 NE9       30.41S WCI  24
6HR MIN TEMP:  31; 6HR MAX TEMP:  33;

J F K          CLOUDY    35  32  88 E6        30.42R WCI  30
6HR MIN TEMP:  35; 6HR MAX TEMP:  39;

Boston Logan   CLOUDY    32  27  81 SE5       30.46S WCI  27
6HR MIN TEMP:  31; 6HR MAX TEMP:  33;

Ft. Lauderdale FAIR      65  53  65 N5        30.22R
6HR MIN TEMP:  65; 6HR MAX TEMP:  73;

Chicago O`Hare FAIR      20   9  62 NW13      30.50R WCI   7
6HR MIN TEMP:  20; 6HR MAX TEMP:  26; 6HR PCP: TRACE;

Chicago Midway FAIR      21  11  65 NW14      30.50R WCI   8
6HR MIN TEMP:  21; 6HR MAX TEMP:  25; 6HR PCP: TRACE;

Houston Bush   CLOUDY    27  20  75 NW13      30.65R WCI  16
6HR MIN TEMP:  25; 6HR MAX TEMP:  27; 6HR PCP:  0.12;

Houston Hobby  LGTSLEET  26  21  81 N16       30.64R WCI  14
6HR MIN TEMP:  25; 6HR MAX TEMP:  29; 6HR PCP:  0.03;

Nashville      FAIR      11   0  61 N10       30.60R WCI  -3
6HR MIN TEMP:  11; 6HR MAX TEMP:  17; 6HR PCP:  0.01;

Atlanta        CLOUDY    41  31  67 NW15      30.33R
6HR MIN TEMP:  41; 6HR MAX TEMP:  50;


$$

GAZ044-118-TXZ119-213-NCZ071-DCZ001-MDZ014-506-PAZ021-071-NJZ106-
NYZ176-178-MAZ106-OHZ011-021-055-MIZ076-KYZ091-ILZ014-INZ047-
MNZ060-ONZ431-170100-

...Gateway Observations for Savannah International...

CITY           SKY/WX    TMP DP  RH WIND       PRES   REMARKS
Savannah Arpt  CLOUDY    45  30  55 SE7       30.36S
6HR MIN TEMP:  45; 6HR MAX TEMP:  59;

Atlanta        CLOUDY    41  31  67 NW15      30.33R
6HR MIN TEMP:  41; 6HR MAX TEMP:  50;

Charlotte      CLOUDY    46  26  45 S12       30.30F
6HR MIN TEMP:  43; 6HR MAX TEMP:  49;

Dallas DFW     PTCLDY    27   1  32 N16       30.68R WCI  15
6HR MIN TEMP:  24; 6HR MAX TEMP:  32;

Houston Bush   CLOUDY    27  20  75 NW13      30.65R WCI  16
6HR MIN TEMP:  25; 6HR MAX TEMP:  27; 6HR PCP:  0.12;

Wash National  CLOUDY    38  25  59 S3        30.37S
6HR MIN TEMP:  37; 6HR MAX TEMP:  43;

Wash Dulles    MOCLDY    34  24  67 NW6       30.36R WCI  29
6HR MIN TEMP:  32; 6HR MAX TEMP:  39;

Baltimore      CLOUDY    32  29  88 W3        30.36S
6HR MIN TEMP:  32; 6HR MAX TEMP:  40;

Philadelphia   CLOUDY    38  29  70 E6        30.38F WCI  33
6HR MIN TEMP:  38; 6HR MAX TEMP:  45;

Newark         CLOUDY    34  27  75 N7        30.41S WCI  28
6HR MIN TEMP:  34; 6HR MAX TEMP:  38;

Laguardia      CLOUDY    32  28  85 NE9       30.41S WCI  24
6HR MIN TEMP:  31; 6HR MAX TEMP:  33;

J F K          CLOUDY    35  32  88 E6        30.42R WCI  30
6HR MIN TEMP:  35; 6HR MAX TEMP:  39;

Boston         CLOUDY    32  27  81 SE5       30.46S WCI  27
6HR MIN TEMP:  31; 6HR MAX TEMP:  33;

Pittsburg      CLOUDY    15   8  73 W8        30.39R WCI   4
6HR MIN TEMP:  15; 6HR MAX TEMP:  25; 6HR PCP:  0.02;

Akron          FAIR       8   1  73 SW5       30.41R WCI   0
6HR MIN TEMP:   7; 6HR MAX TEMP:  12;

Cleveland      CLOUDY     8   0  69 SW13      30.48R WCI  -8
6HR MIN TEMP:   8; 6HR MAX TEMP:  14;

Cincinnati     CLOUDY     9   2  73 W10       30.51S WCI  -5
6HR MIN TEMP:   8; 6HR MAX TEMP:  12;

Columbus       CLOUDY     7   0  73 W6        30.51R WCI  -3
Detroit        FLURRIES   8   3  80 SW10      30.45R WCI  -6
6HR MIN TEMP:   8; 6HR MAX TEMP:  13; 6HR PCP: TRACE;

Chicago O`Hare FAIR      20   9  62 NW13      30.50R WCI   7
6HR MIN TEMP:  20; 6HR MAX TEMP:  26; 6HR PCP: TRACE;

Minneapolis    FAIR       3  -3  76 SW5       30.61F WCI  -6
6HR MIN TEMP:   3; 6HR MAX TEMP:   8;

Indianapolis   FLURRIES   6   0  76 W12       30.56R WCI  -9
6HR MIN TEMP:   2; 6HR MAX TEMP:   6; 6HR PCP: TRACE;

Toronto Canada MOCLDY    23  16  74 W10       30.35R WCI  12

$$




USA.gov is the U.S. government's official web portal to all federal, state and local government web resources and services.